Location: Hradec Kralove
(50.2170°N, 15.8330°E)
Time: 04:00:42
(UTC+01:00)

N. Korean satellite - Pass Details

Date: 04 December 2022
Orbit: 407 x 441 km, 97.3° (Epoch: 05 February)

Event Time Altitude Azimuth Distance (km) Brightness Sun altitude
Rises 05:55:20 0° 6° (N) 2,528 10.1 -15.6°
Reaches altitude 10° 05:57:29 10° 359° (N) 1,642 9.1 -15.3°
Maximum altitude 06:00:48 39° 290° (WNW) 717 6.9 -14.7°
Drops below altitude 10° 06:04:02 10° 220° (SW) 1,610 9.0 -14.2°
Sets 06:06:08 0° 213° (SSW) 2,470 10.0 -13.9°
